Location: Aciu?a
(46.2833°N, 22.4500°E)
Time: 13:41:45
(UTC+00:00)

Cosmos 1825 - Pass Details

Date: 25 October 2021
Orbit: 501 x 504 km, 82.5° (Epoch: 07 December)

Event Time Altitude Azimuth Distance (km) Brightness Sun altitude
Rises 17:37:22 0° 350° (N) 2,610 6.0 -23.2°
Reaches altitude 10° 17:39:29 10° 350° (N) 1,721 5.0 -23.6°
Enters shadow 17:41:46 35° 347° (NNW) 826 3.3 -24.0°
